TANYUSHA 1 (42911 NORAD) Tracking and Keplerian Element Data

This shows tracking and keplerian element data for the satellite.

Feedback or suggestion? Click here.




ElementValue
Catalog42911
NameTANYUSHA 1
Epoch Orbit7004
Epoch Day312.68027843
Epoch Year2018
RAAN349.4903
Inclination51.6375
Eccentricity0.0006519
Argument of Perigee31.2506
Mean Anonmoly60.0832
Mean Motion15.71447914
Decay Rate0.00035535
L11 42911U 98067NA 18312.68027843 .00035535 00000-0 27552-3 0 9995
L22 42911 51.6375 349.4903 0006519 31.2506 60.0832 15.71447914 70049

Live tracking and technical data element details for TANYUSHA 1 (NORAD 42911). TANYUSHA 1 can be tracked NOW for your location showing map with azimuth and elevation plus other details from your city location.

Track the satellite on the map from your city or location and see movement details for azimuth, elevation, latitude, longitude, range, height, and movement on the map or in text.







IsCatalogInMostPopularTable: catalog: 42911, numindb: 148
Update: records affected: 1



GetName: 42911 TANYUSHA 1

Hit Count: updated at: Mon, 12 Nov 2018 18:43:41 GMT